Flag for Canada Weather past 2 weeks in Calgary, Alberta, Canada

Now
68 °F

Passing clouds.


Feels Like: 68 °F
Forecast: 56 / 90 °F
Wind: 10 mph from Southwest

Location: Calgary International

Current Time: Jul 30, 2014 at 8:35:34 AM

Latest Report: Jul 30, 2014 at 8:00 AM


Visibility: 15 mi

Pressure: 30.06 "Hg

Humidity: 46%

Dew point: 46 °F

Location of CalgaryLocation

Historic Weather in Calgary — Graph

°F

Calgary temperature yesterday

Maximum temperature yesterday: 90 °F (at 4:00 PM)
Minimum temperature yesterday: 54 °F (at 5:00 AM)
Average temperature yesterday: 74 °F

Past Weeks' High & Low Weather Summary

 TemperatureHumidityPressure
High90 °F (Jul 29, 4:00 PM)94% (Jul 20, 6:00 AM)30.28 "Hg (Jul 20, 6:00 AM)
Low50 °F (Jul 18, 5:00 AM)14% (Jul 30, 12:56 AM)29.55 "Hg (Jul 19, 7:00 PM)
Average65 °F59%29.96 "Hg
* Reported Jul 15 7:00 AM — Jul 30 7:00 AM, Calgary, Weather by CustomWeather, © 2014

Note: Actual official high and low records may vary slightly from our data, if they occured in-between our weather recording intervals... More about our weather records

Advertising

Calgary weather history for previous 24 hours

 ConditionsComfort  
Time TempWeatherWind HumidityBarometerVisibility
7:00 AM
Jul 30
59 °FPassing clouds.5 mph59%30.08 "Hg20 mi
6:00 AM59 °FPassing clouds.3 mph55%30.08 "Hg20 mi
5:00 AM63 °FPassing clouds.8 mph49%30.06 "Hg20 mi
4:00 AM64 °FPassing clouds.8 mph46%30.06 "Hg15 mi
3:00 AM77 °FPassing clouds.12 mph24%30.01 "Hg15 mi
2:00 AM77 °FPassing clouds.15 mph26%30.02 "Hg15 mi
1:00 AM84 °FScattered showers. Passing clouds.8 mph15%30.01 "Hg15 mi
12:56 AM84 °FPassing clouds.10 mph14%30.01 "Hg15 mi
12:02 AM82 °FSprinkles. Passing clouds.38 mph19%30.03 "Hg10 mi
11:00 PM
Jul 29
79 °FPartly cloudy.17 mph42%30.06 "Hg15 mi
10:00 PM77 °FScattered showers. Broken clouds.9 mph44%30.07 "Hg15 mi
9:00 PM79 °FScattered showers. Broken clouds.8 mph39%30.09 "Hg20 mi
8:00 PM81 °FPartly sunny.8 mph34%30.10 "Hg20 mi
7:00 PM86 °FBroken clouds.10 mph25%30.09 "Hg40 mi
6:00 PM86 °FScattered clouds.10 mph27%30.10 "Hg40 mi
5:00 PM88 °FPassing clouds.9 mph16%30.11 "Hg40 mi
4:00 PM90 °FPassing clouds.10 mph16%30.11 "Hg40 mi
3:00 PM88 °FPassing clouds.13 mph19%30.12 "Hg40 mi
2:00 PM88 °FPassing clouds.6 mph24%30.12 "Hg40 mi
1:00 PM84 °FPassing clouds.3 mph37%30.14 "Hg40 mi
12:00 PM84 °FPassing clouds.2 mph35%30.14 "Hg40 mi
11:00 AM79 °FPassing clouds.2 mph39%30.14 "Hg40 mi
10:00 AM73 °FPassing clouds.No wind44%30.16 "Hg40 mi
9:00 AM68 °FSunny.7 mph49%30.16 "Hg40 mi
8:00 AM63 °FSunny.5 mph68%30.15 "Hg40 mi
Weather by CustomWeather, © 2014

See weather overviewHow to use our weather pages